User: anonymous
Location: Vancouver
(49.2500°N, 123.1330°W)
Time: 11:57:35
(UTC-07:00)
Language:

YAOGAN 6 - Orbit

View from above orbital plane
View from above orbital plane
View from above satellite
View from above satellite

Ground track
Ground track

The orbit data is extracted from the following two-line orbital elements,

1 34839U 09021A   14238.32916878  .00002261  00000-0  10605-3 0  9571
2 34839 097.2807 311.6471 0032623 348.3665 075.6724 15.20212247296369
Epoch (UTC): 26 August 2014 07:54:00
Eccentricity: 0.0032623
inclination: 97.2807°
perigee height: 483 km
apogee height: 527 km
right ascension of ascending node: 311.6471°
argument of perigee: 348.3665°
revolutions per day: 15.20212247
mean anomaly at epoch: 75.6724°
orbit number at epoch: 29636

The dashed part of the orbit path shows where the satellite is in the earth's shadow,  

DLR